Terminal Aerodrome Forecast
Issued by NWS

Home | Current Version | Previous Version | Text Only | Print | Product List | Glossary On
Versions: 1 2 3 4 5 6 7 8 9 10 11 12 13 14 15 16 17 18 19 20 21 22 23 24
000
FTUS43 KGRR 262329
TAFJXN
TAF
KJXN 262329Z 2700/2724 26006KT P6SM BKN250
     FM270300 18003KT P6SM SCT250
     FM271000 27004KT P6SM VCSH SCT035 BKN080
     FM271300 31010KT P6SM BKN050
     FM272100 28009KT P6SM VCSH BKN050=

USA.gov is the U.S. government's official web portal to all federal, state and local government web resources and services.